Regional Weather Roundup
Issued by NWS Upton, NY

Current Version | Previous Version | Graphics & Text | Print | Product List | Glossary Off
Versions: 1 2 3 4 5 6 7 8 9 10 11 12 13 14 15 16 17 18 19 20 21 22 23 24 25 26 27 28 29 30 31 32 33 34 35 36 37 38 39 40 41 42 43 44 45 46 47 48 49 50
000 ASUS41 KOKX 301508 RWROKX REGIONAL WEATHER ROUNDUP NATIONAL WEATHER SERVICE NEW YORK NY 1100 AM EDT THU JUL 30 2015 NOTE: "FAIR" INDICATES FEW OR NO CLOUDS BELOW 12,000 FEET WITH NO SIGNIFICANT WEATHER AND/OR OBSTRUCTIONS TO VISIBILITY. NYZ071-072-176-178-NJZ106-104-301600- NEW YORK CITY METRO AREA CITY SKY/WX TMP DP RH WIND PRES REMARKS CENTRAL PARK CLOUDY 81 71 71 SW8 29.92S LAGUARDIA APRT CLOUDY 81 72 74 S13 29.88F KENNEDY INTL PTSUNNY 80 75 84 S7 29.91S NEWARK/LIBERTY CLOUDY 83 74 74 S9 29.88F BRNX BOT. GARD N/A 81 72 74 SW6 29.91R TETERBORO CLOUDY 82 72 71 S13 29.87F $$ NYZ177-179-078>081-301600- LONG ISLAND NEW YORK CITY SKY/WX TMP DP RH WIND PRES REMARKS FARMINGDALE RAIN 77 75 93 S13 29.90F FOG ISLIP LGT RAIN 77 74 90 SW16G22 29.89F SHIRLEY CLOUDY 79 74 84 S12 29.91F WESTHAMPTON PTSUNNY 82 75 79 SW14G24 29.93S MONTAUK POINT N/A 82 75 79 SW10G20 29.92S $$ NYZ052-065-067-301600- HUDSON VALLEY CITY SKY/WX TMP DP RH WIND PRES REMARKS WHITE PLAINS PTSUNNY 80 73 79 VRB7 29.89F NEWBURGH CLOUDY 82 75 78 W6 29.88F MONTGOMERY CLOUDY 83 74 74 SW10 29.87S POUGHKEEPSIE CLOUDY 84 72 67 S9 29.85F ALBANY PTSUNNY 84 71 65 S13 29.82F $$ NJZ001-105-106-008-010-013-015-019>022-104-301600- NEW JERSEY CITY SKY/WX TMP DP RH WIND PRES REMARKS NEWARK/LIBERTY CLOUDY 83 74 74 S9 29.88F TETERBORO CLOUDY 82 72 71 S13 29.87F CALDWELL CLOUDY 80 72 76 VRB6 29.88F MORRISTOWN CLOUDY 82 75 78 SW9 29.89F SOMERVILLE CLOUDY 82 74 76 VRB6 29.87S SUSSEX CLOUDY 80 73 79 S7 29.88S ANDOVER N/A 79 73 82 VRB5 29.90S TRENTON CLOUDY 84 74 71 S10 29.88F HX 91 MILLVILLE MOSUNNY 83 75 77 SW6 29.93S HX 90 ATLANTIC CITY MOSUNNY 84 73 69 S9 29.93F HX 90 WRIGHTSTOWN MOSUNNY 86 75 70 SW13 29.87F HX 95 TOMS RIVER N/A 86 73 66 S14G21 29.91F HX 93 BELMAR PTSUNNY 84 72 65 SW13 29.90F $$ PAZ047>061-062-071-301600- EASTERN PENNSYLVANIA CITY SKY/WX TMP DP RH WIND PRES REMARKS PHILADELPHIA PTSUNNY 86 73 65 S13G23 29.90S HX 93 ALLENTOWN CLOUDY 82 74 76 SW7 29.89S SCRANTON CLOUDY 81 72 74 SW5 29.89S HAZE $$ CTZ002-004>006-009-010-012-RIZ004-006-007-MAZ004-011-015-301600- SOUTHERN NEW ENGLAND IN CT CITY SKY/WX TMP DP RH WIND PRES REMARKS BRADLEY INTL CLOUDY 83 72 69 S9 29.86S HARTFORD PTSUNNY 85 73 67 SW8 29.86F HX 91 DANBURY CLOUDY 81 72 74 S8 29.90S WTRBRY/OXFORD PTSUNNY 81 72 74 SW8 29.92S HAZE BRIDGEPORT CLOUDY 82 73 74 S10 29.89S MERIDEN PTSUNNY 84 72 67 S13 29.88S NEW HAVEN CLOUDY 79 72 79 SW7 29.89S CHESTER CLOUDY 79 73 83 SW7 29.92S GROTON PTSUNNY 80 72 76 SW13 29.89F WILLIMANTIC PTSUNNY 83 72 69 S10 29.88F IN RI CITY SKY/WX TMP DP RH WIND PRES REMARKS PROVIDENCE PTSUNNY 87 74 64 SW10G20 29.88S HX 95 BLOCK ISLAND N/A 79 73 83 SW20 29.93S WESTERLY PTSUNNY 82 73 74 S10G17 29.91S IN MA CITY SKY/WX TMP DP RH WIND PRES REMARKS BOSTON PTSUNNY 89 69 51 SW20G26 29.84F HX 93 WORCESTER MOSUNNY 82 70 66 S13 29.90F WESTFIELD PTSUNNY 84 72 67 SW10 29.86S PROVINCETOWN SUNNY 81 70 69 SW14 29.88S NANTUCKET PTSUNNY 77 72 84 SW12 29.93S $$ ANZ330-335-338-340-345-350-353-355-301600- COASTAL MARINE OBSERVATIONS STATION/POSITION TIME SKY/WX TEMP WIND PRES VSBY WAVE AIR SEA DIR/SP/G HT/PER (UTC) (F) (DEG/KT/KT) (MB) (MI) (FT/S) NY HARB ENTRANCE 1450 77 76 200/ 16/ 19 1012.0 3/ 5 4S FIRE IS NOT AVBL 20S FIRE ISLAND 1450 76 74 200/ 14/ 17 1012.7 4/ 5 GREAT SOUTH BAY 1430 78 81 250/ 16/ 21 N/A 23SW MTP 1450 76 74 220/ 14/ 17 1012.8 3/ 9 HUDSON CANYON NOT AVBL KINGS POINT 1400 70 230/ 10/ 13 N/A EXECUTION ROCKS 1400 76 210/ 6/ 6 N/A CENTRAL LI SOUND NOT AVBL EASTERN LI SOUND 1400 77 70 210/ 8/ 10 N/A ROBBINS REEF 1400 210/ 7/ 9 N/A $$ >>>>>>>>>>>>>>>>>>>>>>>>>>>> KEY <<<<<<<<<<<<<<<<<<<<<<<<<<< > < > SKY/WX - SKY CONDITION/PRESENT WEATHER < > TMP - TEMPERATURE IN FAHRENHEIT < > DP - DEWPOINT IN FAHRENHEIT < > RH - RELATIVE HUMIDITY IN PERCENT < > WIND - DIRECTION AND SPEED IN MPH < > PRES - MEAN SEA LEVEL PRESSURE IN INCHES OF HG < > WCI - WIND CHILL INDEX < > VSB - VISIBILITY IN MILES < > HX - HEAT INDEX < > TC - TEMPERATURE IN CELSIUS < > VRB - VARIABLE WIND DIRECTION < > < >>>>>>>>>>>>>>>>>>>>>>>>>>>> KEY <<<<<<<<<<<<<<<<<<<<<<<<<<<

USA.gov is the U.S. government's official web portal to all federal, state and local government web resources and services.